Terminal Aerodrome Forecast
Issued by NWS Charleston, WV

Current Version | Previous Version | Graphics & Text | Print | Product List | Glossary On
Versions: 1 2 3 4 5 6 7 8 9 10 11 12 13 14 15 16 17 18 19 20 21 22 23 24 25 26 27 28
000
FTUS41 KRLX 230333 AAA
TAFCRW
TAF AMD
KCRW 230333Z 2304/2324 00000KT 6SM BR SCT008 BKN100
     FM231300 15006KT 6SM BR BKN035
     FM231400 17007KT P6SM BKN035
     FM231700 20009G15KT P6SM BKN035=

USA.gov is the U.S. government's official web portal to all federal, state and local government web resources and services.